Tracking 19792 objects as of 16-Jul-2019
HD Live streaming from Space Station
objects crossing your sky now

INTELSAT 6B (PAS 6B)

Track INTELSAT 6B (PAS 6B) now!
INTELSAT 6B (PAS 6B) is classified as:


NORAD ID: 25585
Int'l Code: 1998-075A
Perigee: 36,042.6 km
Apogee: 36,176.8 km
Inclination: 8.5 °
Period: 1,452.3 minutes
Semi major axis: 42480 km
RCS: 21.1435 m2 (large)
Launch date: December 22, 1998
Source: United States (US)
Launch site: FRENCH GUIANA (FRGUI)

voice and video communcations; 32 Ku-band; South America.
aabbcc
Your satellite tracking list
Your tracking list is empty




NASA's NSSDC Master Catalog

Two Line Element Set (TLE):
1 25585U 98075A   19196.77337751 -.00000074 +00000-0 +00000-0 0  9992
2 25585 008.4500 046.7014 0015801 097.2723 262.6763 00.99155238074916
Source of the keplerian elements: AFSPC